SAV02P KEWR-EGGD

Flight info

Callsign SAV02P
Flight time N/A
Altitude 39000
Route GREKI DCT JUDDS DCT MARTN DCT CBIRD DCT MIILS N739B LOMSI/M085F390 DCT 5550N DCT 5640N DCT 5630N DCT 5520N DCT DOGAL/N0494F390 DCT BEXET DCT ENJEX DCT ADHAV DCT AGCAT Q63 BAJJA
Aircraft B788/H-SDE1E2E3FGHIJ2J3J4J5M1RWXY/LB1D1

Departure

Time 2026-05-01 09:50
Airport Newark Liberty International Airport (KEWR)

Arrival

Time N/A
Airport Bristol Airport (EGGD)
Time Latitude Longitude Altitude Speed Heading
2026-05-01 09:33 40.69144 -74.17371 22 ft 0 kts 326°
2026-05-01 09:40 40.69140 -74.17367 22 ft 2 kts 325°
2026-05-01 09:40 40.69127 -74.17355 28 ft 2 kts 325°
2026-05-01 09:41 40.69113 -74.17342 26 ft 2 kts 326°
2026-05-01 09:41 40.69086 -74.17318 28 ft 2 kts 325°
2026-05-01 09:41 40.69072 -74.17306 29 ft 2 kts 329°
2026-05-01 09:42 40.69057 -74.17308 28 ft 2 kts 29°
2026-05-01 09:42 40.69054 -74.17311 28 ft 0 kts 32°
2026-05-01 09:44 40.69064 -74.17304 29 ft 5 kts 24°
2026-05-01 09:44 40.69116 -74.17278 24 ft 11 kts 21°
2026-05-01 09:44 40.69167 -74.17232 25 ft 6 kts 82°
2026-05-01 09:45 40.69151 -74.17193 28 ft 6 kts 133°
2026-05-01 09:45 40.69116 -74.17123 24 ft 1 kts 125°
2026-05-01 09:45 40.69109 -74.17118 24 ft 1 kts 171°
2026-05-01 09:46 40.69084 -74.17127 25 ft 9 kts 198°
2026-05-01 09:46 40.69001 -74.17175 24 ft 16 kts 208°
2026-05-01 09:46 40.68897 -74.17246 25 ft 18 kts 201°
2026-05-01 09:46 40.68776 -74.17315 28 ft 20 kts 204°
2026-05-01 09:47 40.68650 -74.17397 31 ft 21 kts 206°
2026-05-01 09:47 40.68553 -74.17460 29 ft 17 kts 206°
2026-05-01 09:47 40.68439 -74.17534 28 ft 20 kts 206°
2026-05-01 09:47 40.68325 -74.17608 30 ft 9 kts 207°
2026-05-01 09:48 40.68290 -74.17615 27 ft 1 kts 139°
2026-05-01 09:48 40.68285 -74.17607 29 ft 1 kts 137°
2026-05-01 09:48 40.68264 -74.17611 27 ft 8 kts 210°
2026-05-01 09:48 40.68207 -74.17602 26 ft 9 kts 133°
2026-05-01 09:49 40.68207 -74.17525 27 ft 10 kts 47°
2026-05-01 09:49 40.68235 -74.17502 28 ft 0 kts 21°
2026-05-01 09:49 40.68299 -74.17466 26 ft 31 kts 24°
2026-05-01 09:50 40.68713 -74.17204 27 ft 100 kts 26°
2026-05-01 09:50 40.69526 -74.16683 40 ft 160 kts 24°
2026-05-01 09:50 40.70554 -74.15943 596 ft 176 kts 30°
2026-05-01 09:50 40.71672 -74.15130 1477 ft 186 kts 26°
2026-05-01 09:51 40.72806 -74.14235 2420 ft 198 kts 28°
2026-05-01 09:51 40.74003 -74.13207 3246 ft 209 kts 30°
2026-05-01 09:51 40.75171 -74.12121 4235 ft 209 kts 37°
2026-05-01 09:51 40.76008 -74.10475 4867 ft 223 kts 58°
2026-05-01 09:52 40.76878 -74.08746 5524 ft 229 kts 45°
2026-05-01 09:52 40.78063 -74.07302 6222 ft 235 kts 34°
2026-05-01 09:52 40.79392 -74.05993 6881 ft 242 kts 33°
2026-05-01 09:52 40.80741 -74.04603 7554 ft 250 kts 35°
2026-05-01 09:53 40.82102 -74.03123 8237 ft 257 kts 35°
2026-05-01 09:53 40.83501 -74.01604 8930 ft 263 kts 34°
2026-05-01 09:53 40.84917 -74.00085 9627 ft 269 kts 34°
2026-05-01 09:53 40.86387 -73.98510 10296 ft 274 kts 34°
2026-05-01 09:54 40.87885 -73.96899 10944 ft 280 kts 34°
2026-05-01 09:54 40.89410 -73.95256 11609 ft 285 kts 34°
2026-05-01 09:54 40.90961 -73.93585 12275 ft 290 kts 34°
2026-05-01 09:54 40.92540 -73.91884 12322 ft 289 kts 34°
2026-05-01 09:55 40.93589 -73.90753 12329 ft 301 kts 34°
2026-05-01 09:55 40.95290 -73.88930 12367 ft 329 kts 34°
2026-05-01 09:55 40.97135 -73.86942 12386 ft 355 kts 35°
2026-05-01 09:55 40.99777 -73.84078 12454 ft 386 kts 36°
2026-05-01 09:56 41.01904 -73.81772 12753 ft 399 kts 36°
2026-05-01 09:56 41.04057 -73.79437 13366 ft 403 kts 36°
2026-05-01 09:56 41.05534 -73.77839 13742 ft 406 kts 36°
2026-05-01 09:56 41.07732 -73.75458 14251 ft 410 kts 36°
2026-05-01 09:57 41.09928 -73.73075 14790 ft 413 kts 36°
2026-05-01 09:57 41.12166 -73.70643 15303 ft 416 kts 36°
2026-05-01 09:57 41.14415 -73.68199 15829 ft 420 kts 36°
2026-05-01 09:57 41.16681 -73.65734 16325 ft 423 kts 36°
2026-05-01 09:58 41.18972 -73.63238 16828 ft 426 kts 36°
2026-05-01 09:58 41.21249 -73.60756 17316 ft 429 kts 36°
2026-05-01 09:58 41.23565 -73.58229 17791 ft 432 kts 36°
2026-05-01 09:58 41.25900 -73.55678 18254 ft 435 kts 36°
2026-05-01 09:59 41.28247 -73.53113 18665 ft 438 kts 36°
2026-05-01 09:59 41.30607 -73.50530 19043 ft 441 kts 36°
2026-05-01 09:59 41.32985 -73.47926 19425 ft 444 kts 36°
2026-05-01 09:59 41.35376 -73.45305 19785 ft 447 kts 36°
2026-05-01 10:00 41.37783 -73.42663 20144 ft 450 kts 36°
2026-05-01 10:00 41.40204 -73.40003 20507 ft 452 kts 36°
2026-05-01 10:00 41.42637 -73.37328 20848 ft 455 kts 36°
2026-05-01 10:00 41.45082 -73.34637 21191 ft 457 kts 36°
2026-05-01 10:01 41.47511 -73.31957 21478 ft 460 kts 37°
2026-05-01 10:01 41.49839 -73.28993 21757 ft 465 kts 41°
2026-05-01 10:01 41.52135 -73.25924 22077 ft 467 kts 41°
2026-05-01 10:01 41.54442 -73.22854 22365 ft 469 kts 41°
2026-05-01 10:02 41.56765 -73.19773 22661 ft 471 kts 41°
2026-05-01 10:02 41.59152 -73.16759 22931 ft 470 kts 34°
2026-05-01 10:02 41.61846 -73.14430 23218 ft 465 kts 21°
2026-05-01 10:02 41.64832 -73.12842 23490 ft 459 kts 10°
2026-05-01 10:03 41.67952 -73.12073 23688 ft 453 kts 358°
2026-05-01 10:03 41.71077 -73.12122 23923 ft 445 kts 347°
2026-05-01 10:03 41.74151 -73.12624 24103 ft 446 kts 347°
2026-05-01 10:03 41.77237 -73.13149 24325 ft 447 kts 347°
2026-05-01 10:04 41.80334 -73.13684 24516 ft 449 kts 347°
2026-05-01 10:04 41.83404 -73.14207 24722 ft 450 kts 347°
2026-05-01 10:04 41.86522 -73.14731 24927 ft 452 kts 347°
2026-05-01 10:04 41.89652 -73.15263 25121 ft 453 kts 347°
2026-05-01 10:05 41.92788 -73.15799 25290 ft 455 kts 347°
2026-05-01 10:05 41.95930 -73.16336 25492 ft 456 kts 347°
2026-05-01 10:05 41.99097 -73.16875 25651 ft 458 kts 347°
2026-05-01 10:05 42.02224 -73.17409 25833 ft 459 kts 347°
2026-05-01 10:06 42.05410 -73.17954 26001 ft 460 kts 347°
2026-05-01 10:06 42.08593 -73.18500 26185 ft 462 kts 347°
2026-05-01 10:06 42.11794 -73.19049 26368 ft 463 kts 347°
2026-05-01 10:06 42.14994 -73.19597 26547 ft 465 kts 347°
2026-05-01 10:07 42.18209 -73.20149 26691 ft 466 kts 347°
2026-05-01 10:07 42.21428 -73.20703 26864 ft 467 kts 347°
2026-05-01 10:07 42.24655 -73.21257 27016 ft 468 kts 347°
2026-05-01 10:07 42.27900 -73.21817 27159 ft 470 kts 347°
2026-05-01 10:08 42.34416 -73.22941 27492 ft 473 kts 347°
2026-05-01 10:08 42.37651 -73.23500 27669 ft 475 kts 347°
2026-05-01 10:08 42.40937 -73.24069 27812 ft 477 kts 347°
2026-05-01 10:09 42.44228 -73.24638 27951 ft 478 kts 347°
2026-05-01 10:09 42.47538 -73.25212 28088 ft 480 kts 348°
2026-05-01 10:09 42.50857 -73.25788 28241 ft 481 kts 348°
2026-05-01 10:09 42.54223 -73.26017 28377 ft 489 kts 359°
2026-05-01 10:10 42.57622 -73.25403 28496 ft 497 kts
2026-05-01 10:10 42.60928 -73.23932 28620 ft 504 kts 21°
2026-05-01 10:10 42.66982 -73.18929 28865 ft 512 kts 31°
2026-05-01 10:11 42.69896 -73.16239 28988 ft 514 kts 32°
2026-05-01 10:11 42.72850 -73.13498 29154 ft 515 kts 32°
2026-05-01 10:11 42.75818 -73.10766 29280 ft 516 kts 32°
2026-05-01 10:11 42.78802 -73.08027 29411 ft 517 kts 32°
2026-05-01 10:12 42.81787 -73.05270 29547 ft 518 kts 32°
2026-05-01 10:12 42.84770 -73.02502 29674 ft 519 kts 32°
2026-05-01 10:12 42.90774 -72.96944 29916 ft 522 kts 33°
2026-05-01 10:13 42.93738 -72.94195 30027 ft 523 kts 33°
2026-05-01 10:13 42.99769 -72.88583 30195 ft 525 kts 33°
2026-05-01 10:14 43.05833 -72.82933 30360 ft 528 kts 33°
2026-05-01 10:14 43.08870 -72.80097 30453 ft 529 kts 34°
2026-05-01 10:14 43.14959 -72.74400 30633 ft 531 kts 34°
2026-05-01 10:15 43.21049 -72.68689 30804 ft 533 kts 34°
2026-05-01 10:15 43.27184 -72.62921 30979 ft 534 kts 34°
2026-05-01 10:16 43.33327 -72.57132 31157 ft 535 kts 34°
2026-05-01 10:16 43.39390 -72.51403 32176 ft 514 kts 34°
2026-05-01 10:17 43.42256 -72.48689 33623 ft 487 kts 34°
2026-05-01 10:17 43.47782 -72.43452 34412 ft 481 kts 34°
2026-05-01 10:17 43.50540 -72.40832 34638 ft 481 kts 34°
2026-05-01 10:18 43.56011 -72.35626 35115 ft 479 kts 34°
2026-05-01 10:18 43.58753 -72.33013 35346 ft 479 kts 34°
2026-05-01 10:18 43.61497 -72.30396 35573 ft 479 kts 34°
2026-05-01 10:19 43.64229 -72.27787 35794 ft 478 kts 34°
2026-05-01 10:19 43.66966 -72.25169 36014 ft 478 kts 34°
2026-05-01 10:19 43.69700 -72.22552 36247 ft 477 kts 34°
2026-05-01 10:20 43.75149 -72.17328 36684 ft 476 kts 34°
2026-05-01 10:20 43.77875 -72.14709 36914 ft 476 kts 34°
2026-05-01 10:20 43.80592 -72.12097 37120 ft 476 kts 34°
2026-05-01 10:20 43.83314 -72.09476 37345 ft 476 kts 34°
2026-05-01 10:21 43.85994 -72.06893 37552 ft 475 kts 34°
2026-05-01 10:21 43.91427 -72.01647 37961 ft 475 kts 34°
2026-05-01 10:21 43.94143 -71.99021 38172 ft 475 kts 34°
2026-05-01 10:22 43.99560 -71.93774 38564 ft 475 kts 34°
2026-05-01 10:22 44.04979 -71.88512 38880 ft 474 kts 34°
2026-05-01 10:23 44.07693 -71.85873 38878 ft 478 kts 34°
2026-05-01 10:23 44.15938 -71.77836 38884 ft 489 kts 35°
2026-05-01 10:24 44.27207 -71.66806 38895 ft 502 kts 35°
2026-05-01 10:25 44.38761 -71.55442 38890 ft 513 kts 35°
2026-05-01 10:26 44.44619 -71.49658 38897 ft 517 kts 35°
2026-05-01 10:27 44.56444 -71.37939 38890 ft 521 kts 36°
2026-05-01 10:28 44.65273 -71.29152 38882 ft 521 kts 36°
2026-05-01 10:28 44.74154 -71.20278 38867 ft 520 kts 36°
2026-05-01 10:29 44.82933 -71.11403 38888 ft 518 kts 41°
2026-05-01 10:30 44.87677 -71.03826 38886 ft 517 kts 54°
2026-05-01 10:30 44.91999 -70.95702 38884 ft 517 kts 54°
2026-05-01 10:31 45.00657 -70.79489 38866 ft 516 kts 55°
2026-05-01 10:32 45.07086 -70.67391 38853 ft 514 kts 55°
2026-05-01 10:33 45.15684 -70.51112 38836 ft 516 kts 55°
2026-05-01 10:34 45.22088 -70.38928 38828 ft 514 kts 55°
2026-05-01 10:34 45.26359 -70.30774 38824 ft 514 kts 55°
2026-05-01 10:35 45.32724 -70.18579 38814 ft 513 kts 55°
2026-05-01 10:35 45.36967 -70.10418 38811 ft 513 kts 55°
2026-05-01 10:36 45.43333 -69.98134 38807 ft 514 kts 55°
2026-05-01 10:37 45.47570 -69.89927 38803 ft 514 kts 55°
2026-05-01 10:37 45.53884 -69.77654 38795 ft 513 kts 55°
2026-05-01 10:38 45.58094 -69.69442 38787 ft 511 kts 56°
2026-05-01 10:38 45.62289 -69.61233 38787 ft 512 kts 56°
2026-05-01 10:39 45.66489 -69.52992 38783 ft 512 kts 56°
2026-05-01 10:39 45.70680 -69.44744 38776 ft 512 kts 56°
2026-05-01 10:40 45.74843 -69.36529 38774 ft 512 kts 56°
2026-05-01 10:40 45.79020 -69.28260 38768 ft 512 kts 56°
2026-05-01 10:41 45.83182 -69.19997 38769 ft 511 kts 56°
2026-05-01 10:42 45.89423 -69.07562 38759 ft 511 kts 56°
2026-05-01 10:42 45.93573 -68.99263 38755 ft 511 kts 56°
2026-05-01 10:43 45.97691 -68.91004 38752 ft 511 kts 56°
2026-05-01 10:43 46.01827 -68.82684 38747 ft 511 kts 56°
2026-05-01 10:44 46.05965 -68.74336 38741 ft 511 kts 56°
2026-05-01 10:44 46.10092 -68.65984 38743 ft 511 kts 56°
2026-05-01 10:45 46.14182 -68.57682 38736 ft 509 kts 56°
2026-05-01 10:45 46.17599 -68.50728 38743 ft 510 kts 56°
2026-05-01 10:46 46.21694 -68.42372 38740 ft 510 kts 56°
2026-05-01 10:46 46.25798 -68.33971 38731 ft 510 kts 56°
2026-05-01 10:47 46.29858 -68.25637 38738 ft 510 kts 56°
2026-05-01 10:47 46.33945 -68.17223 38736 ft 510 kts 56°
2026-05-01 10:48 46.38016 -68.08815 38735 ft 509 kts 56°
2026-05-01 10:48 46.42060 -68.00438 38734 ft 509 kts 56°
2026-05-01 10:49 46.46119 -67.92005 38739 ft 509 kts 56°
2026-05-01 10:49 46.50171 -67.83559 38738 ft 509 kts 56°
2026-05-01 10:50 46.54220 -67.75096 38739 ft 509 kts 56°
2026-05-01 10:50 46.58229 -67.66691 38737 ft 509 kts 56°
2026-05-01 10:51 46.62259 -67.58216 38738 ft 508 kts 56°
2026-05-01 10:51 46.66275 -67.49746 38735 ft 508 kts 56°
2026-05-01 10:52 46.70264 -67.41305 38755 ft 507 kts 56°
2026-05-01 10:52 46.74255 -67.32834 38755 ft 507 kts 56°
2026-05-01 10:53 46.78256 -67.24322 38866 ft 508 kts 59°
2026-05-01 10:53 46.82278 -67.15726 38766 ft 513 kts 59°
2026-05-01 10:54 46.86287 -67.07156 38778 ft 514 kts 57°
2026-05-01 10:54 46.88605 -67.03159 38801 ft 518 kts 45°
2026-05-01 10:54 46.91241 -66.99548 38784 ft 520 kts 45°
2026-05-01 10:55 46.96550 -66.92365 38787 ft 520 kts 45°
2026-05-01 10:55 47.01838 -66.85130 38795 ft 520 kts 45°
2026-05-01 10:56 47.07130 -66.77904 38804 ft 519 kts 45°
2026-05-01 10:56 47.12413 -66.70650 38811 ft 519 kts 45°
2026-05-01 10:57 47.17682 -66.63404 38811 ft 519 kts 45°
2026-05-01 10:57 47.22916 -66.56182 38820 ft 518 kts 46°
2026-05-01 10:58 47.28158 -66.48929 38817 ft 514 kts 46°
2026-05-01 10:58 47.33366 -66.41703 38822 ft 513 kts 46°
2026-05-01 10:59 47.38541 -66.34502 38826 ft 514 kts 46°
2026-05-01 10:59 47.43731 -66.27261 38836 ft 513 kts 46°
2026-05-01 11:00 47.48920 -66.19997 38846 ft 514 kts 46°
2026-05-01 11:00 47.54094 -66.12737 38859 ft 514 kts 46°
2026-05-01 11:01 47.59272 -66.05449 38858 ft 512 kts 46°
2026-05-01 11:01 47.64436 -65.98160 38863 ft 512 kts 46°
2026-05-01 11:02 47.69589 -65.90866 38861 ft 511 kts 46°
2026-05-01 11:02 47.74688 -65.83626 38861 ft 510 kts 46°
2026-05-01 11:03 47.79816 -65.76327 38866 ft 509 kts 46°
2026-05-01 11:03 47.84930 -65.69024 38869 ft 509 kts 46°
2026-05-01 11:04 47.90034 -65.61716 38881 ft 508 kts 46°
2026-05-01 11:04 47.95124 -65.54406 38886 ft 507 kts 46°
2026-05-01 11:05 48.00199 -65.47098 38892 ft 506 kts 46°
2026-05-01 11:05 48.05220 -65.39846 38901 ft 505 kts 46°
2026-05-01 11:06 48.10252 -65.32558 38910 ft 501 kts 46°
2026-05-01 11:06 48.15243 -65.25306 38916 ft 500 kts 46°
2026-05-01 11:07 48.22710 -65.14422 38921 ft 498 kts 47°
2026-05-01 11:07 48.27670 -65.07165 38926 ft 498 kts 47°
2026-05-01 11:08 48.32624 -64.99896 38938 ft 497 kts 47°
2026-05-01 11:09 48.40014 -64.89014 38951 ft 498 kts 47°
2026-05-01 11:09 48.44965 -64.81699 38953 ft 498 kts 47°
2026-05-01 11:10 48.52360 -64.70730 38979 ft 499 kts 47°
2026-05-01 11:10 48.57314 -64.63357 38987 ft 498 kts 47°
2026-05-01 11:11 48.62258 -64.55976 38988 ft 500 kts 47°
2026-05-01 11:11 48.67216 -64.48552 38993 ft 503 kts 47°
2026-05-01 11:12 48.72160 -64.41129 38992 ft 504 kts 47°
2026-05-01 11:12 48.77141 -64.33628 38984 ft 504 kts 47°
2026-05-01 11:13 48.82083 -64.26164 38986 ft 504 kts 47°
2026-05-01 11:13 48.87051 -64.18637 38992 ft 504 kts 47°
2026-05-01 11:14 48.92012 -64.11098 38992 ft 503 kts 47°
2026-05-01 11:14 48.96956 -64.03565 39000 ft 502 kts 47°
2026-05-01 11:15 49.01859 -63.96069 39000 ft 502 kts 47°
2026-05-01 11:15 49.06787 -63.88514 39012 ft 502 kts 47°
2026-05-01 11:16 49.11716 -63.80935 39020 ft 502 kts 47°
2026-05-01 11:16 49.16639 -63.73344 39025 ft 502 kts 47°
2026-05-01 11:17 49.21518 -63.65797 39023 ft 501 kts 47°
2026-05-01 11:17 49.26413 -63.58202 39032 ft 501 kts 48°
2026-05-01 11:18 49.31309 -63.50584 39037 ft 501 kts 48°
2026-05-01 11:18 49.36192 -63.42961 39045 ft 500 kts 48°
2026-05-01 11:19 49.41068 -63.35327 39051 ft 501 kts 48°
2026-05-01 11:19 49.45950 -63.27662 39063 ft 502 kts 48°
2026-05-01 11:20 49.50802 -63.20018 39064 ft 501 kts 48°
2026-05-01 11:20 49.55674 -63.12322 39074 ft 501 kts 48°
2026-05-01 11:21 49.60535 -63.04620 39075 ft 501 kts 48°
2026-05-01 11:21 49.65361 -62.96948 39083 ft 501 kts 48°
2026-05-01 11:22 49.70213 -62.89212 39087 ft 501 kts 48°
2026-05-01 11:22 49.75066 -62.81451 39095 ft 501 kts 48°
2026-05-01 11:23 49.79910 -62.73681 39102 ft 501 kts 48°
2026-05-01 11:23 49.84746 -62.65900 39108 ft 501 kts 48°
2026-05-01 11:24 49.89539 -62.58164 39109 ft 501 kts 48°
2026-05-01 11:25 49.96767 -62.46453 39121 ft 500 kts 48°
2026-05-01 11:25 50.03982 -62.34708 39127 ft 500 kts 48°
2026-05-01 11:26 50.11164 -62.22964 39141 ft 500 kts 48°
2026-05-01 11:27 50.15953 -62.15102 39150 ft 500 kts 48°
2026-05-01 11:27 50.20738 -62.07222 39156 ft 500 kts 48°
2026-05-01 11:28 50.25510 -61.99338 39156 ft 499 kts 49°
2026-05-01 11:28 50.30277 -61.91438 39156 ft 499 kts 49°
2026-05-01 11:29 50.37407 -61.79577 39158 ft 499 kts 49°
2026-05-01 11:30 50.44502 -61.67718 39164 ft 498 kts 49°
2026-05-01 11:30 50.49239 -61.59769 39172 ft 498 kts 49°
2026-05-01 11:31 50.53976 -61.51796 39177 ft 499 kts 49°
2026-05-01 11:31 50.58705 -61.43810 39184 ft 498 kts 49°
2026-05-01 11:32 50.63401 -61.35855 39188 ft 498 kts 49°
2026-05-01 11:32 50.68120 -61.27836 39188 ft 498 kts 49°
2026-05-01 11:33 50.72812 -61.19837 39191 ft 498 kts 49°
2026-05-01 11:33 50.77528 -61.11772 39194 ft 498 kts 49°
2026-05-01 11:34 50.82232 -61.03703 39200 ft 498 kts 49°
2026-05-01 11:34 50.86873 -60.95714 39201 ft 498 kts 49°
2026-05-01 11:35 50.91581 -60.87585 39216 ft 498 kts 49°
2026-05-01 11:35 50.95508 -60.80785 39219 ft 499 kts 49°
2026-05-01 11:36 51.00166 -60.72694 39221 ft 499 kts 49°
2026-05-01 11:36 51.04843 -60.64545 39222 ft 499 kts 49°
2026-05-01 11:37 51.09512 -60.56384 39226 ft 499 kts 49°
2026-05-01 11:37 51.14177 -60.48204 39228 ft 498 kts 49°
2026-05-01 11:38 51.18841 -60.39996 39228 ft 499 kts 50°
2026-05-01 11:38 51.23490 -60.31790 39232 ft 498 kts 50°
2026-05-01 11:39 51.28129 -60.23575 39233 ft 498 kts 50°
2026-05-01 11:39 51.32731 -60.15399 39242 ft 498 kts 50°
2026-05-01 11:40 51.37361 -60.07146 39239 ft 497 kts 50°
2026-05-01 11:40 51.41972 -59.98898 39240 ft 497 kts 50°
2026-05-01 11:41 51.46567 -59.90655 39248 ft 497 kts 50°
2026-05-01 11:41 51.51178 -59.82355 39246 ft 498 kts 50°
2026-05-01 11:42 51.55783 -59.74038 39247 ft 498 kts 50°
2026-05-01 11:42 51.60353 -59.65757 39252 ft 498 kts 50°
2026-05-01 11:43 51.64954 -59.57392 39253 ft 499 kts 50°
2026-05-01 11:43 51.69555 -59.48999 39253 ft 499 kts 50°
2026-05-01 11:44 51.76448 -59.36374 39255 ft 499 kts 51°
2026-05-01 11:44 51.80999 -59.28004 39254 ft 499 kts 51°
2026-05-01 11:45 51.85584 -59.19541 39256 ft 499 kts 51°
2026-05-01 11:45 51.90167 -59.11055 39261 ft 500 kts 51°
2026-05-01 11:46 51.94712 -59.02611 39260 ft 500 kts 51°
2026-05-01 11:46 51.99281 -58.94093 39261 ft 499 kts 51°
2026-05-01 11:47 52.03845 -58.85555 39268 ft 499 kts 51°
2026-05-01 11:47 52.08393 -58.77020 39268 ft 499 kts 51°
2026-05-01 11:48 52.12925 -58.68484 39269 ft 498 kts 51°
2026-05-01 11:48 52.17423 -58.59985 39268 ft 498 kts 51°
2026-05-01 11:49 52.21947 -58.51408 39274 ft 498 kts 51°
2026-05-01 11:49 52.26457 -58.42826 39276 ft 497 kts 51°
2026-05-01 11:50 52.30932 -58.34284 39274 ft 497 kts 51°
2026-05-01 11:50 52.35425 -58.25677 39275 ft 497 kts 52°
2026-05-01 11:51 52.39916 -58.17045 39278 ft 498 kts 52°
2026-05-01 11:51 52.44400 -58.08396 39277 ft 498 kts 52°
2026-05-01 11:52 52.48855 -57.99774 39279 ft 499 kts 52°
2026-05-01 11:52 52.53338 -57.91066 39276 ft 498 kts 52°
2026-05-01 11:53 52.57805 -57.82361 39279 ft 498 kts 52°
2026-05-01 11:53 52.62272 -57.73625 39276 ft 498 kts 52°
2026-05-01 11:54 52.66699 -57.64938 39283 ft 498 kts 52°
2026-05-01 11:54 52.71151 -57.56171 39283 ft 498 kts 52°
2026-05-01 11:55 52.75591 -57.47397 39282 ft 497 kts 53°
2026-05-01 11:55 52.80016 -57.38623 39285 ft 496 kts 53°
2026-05-01 11:56 52.84427 -57.29844 39283 ft 497 kts 53°
2026-05-01 11:56 52.88833 -57.21044 39285 ft 496 kts 53°
2026-05-01 11:57 52.93207 -57.12280 39286 ft 496 kts 53°
2026-05-01 11:57 52.97608 -57.03429 39287 ft 497 kts 53°
2026-05-01 11:58 53.02002 -56.94562 39286 ft 496 kts 53°
2026-05-01 11:59 53.08573 -56.81239 39288 ft 496 kts 53°
2026-05-01 11:59 53.10561 -56.76580 39335 ft 491 kts 64°
2026-05-01 11:59 53.12190 -56.71587 39300 ft 492 kts 65°
2026-05-01 12:00 53.16994 -56.56532 39302 ft 493 kts 65°
2026-05-01 12:01 53.21820 -56.41379 39308 ft 493 kts 65°
2026-05-01 12:01 53.25028 -56.31263 39310 ft 493 kts 65°
2026-05-01 12:02 53.28225 -56.21126 39304 ft 492 kts 65°
2026-05-01 12:02 53.31413 -56.10978 39306 ft 492 kts 65°
2026-05-01 12:03 53.34590 -56.00822 39303 ft 492 kts 65°
2026-05-01 12:03 53.37733 -55.90733 39306 ft 492 kts 65°
2026-05-01 12:04 53.40887 -55.80564 39308 ft 491 kts 65°
2026-05-01 12:04 53.44026 -55.70405 39306 ft 490 kts 65°
2026-05-01 12:05 53.47151 -55.60243 39313 ft 490 kts 65°
2026-05-01 12:05 53.51809 -55.45020 39314 ft 490 kts 65°
2026-05-01 12:06 53.54919 -55.34802 39328 ft 491 kts 65°
2026-05-01 12:06 53.58022 -55.24562 39322 ft 490 kts 65°
2026-05-01 12:07 53.61112 -55.14323 39330 ft 489 kts 65°
2026-05-01 12:07 53.64167 -55.04156 39335 ft 489 kts 65°
2026-05-01 12:08 53.67230 -54.93918 39334 ft 488 kts 65°
2026-05-01 12:08 53.70288 -54.83650 39335 ft 489 kts 65°
2026-05-01 12:09 53.73332 -54.73390 39339 ft 487 kts 65°
2026-05-01 12:09 53.76336 -54.63217 39335 ft 487 kts 65°
2026-05-01 12:10 53.80877 -54.47761 39344 ft 489 kts 66°
2026-05-01 12:11 53.85393 -54.32284 39350 ft 488 kts 66°
2026-05-01 12:11 53.88371 -54.22024 39353 ft 488 kts 66°
2026-05-01 12:12 53.91365 -54.11662 39355 ft 488 kts 66°
2026-05-01 12:12 53.94341 -54.01317 39358 ft 487 kts 66°
2026-05-01 12:13 53.97309 -53.90954 39358 ft 488 kts 66°
2026-05-01 12:13 54.00271 -53.80568 39361 ft 488 kts 66°
2026-05-01 12:14 54.03225 -53.70159 39365 ft 488 kts 66°
2026-05-01 12:14 54.06153 -53.59800 39362 ft 489 kts 66°
2026-05-01 12:15 54.09093 -53.49353 39367 ft 489 kts 66°
2026-05-01 12:15 54.12028 -53.38874 39372 ft 490 kts 66°
2026-05-01 12:16 54.14952 -53.28385 39374 ft 489 kts 66°
2026-05-01 12:16 54.17870 -53.17875 39379 ft 489 kts 66°
2026-05-01 12:17 54.20776 -53.07356 39379 ft 489 kts 67°
2026-05-01 12:17 54.23656 -52.96884 39380 ft 489 kts 67°
2026-05-01 12:18 54.26537 -52.86364 39386 ft 489 kts 67°
2026-05-01 12:18 54.29416 -52.75800 39391 ft 489 kts 67°
2026-05-01 12:19 54.32283 -52.65233 39390 ft 489 kts 67°
2026-05-01 12:19 54.35123 -52.54717 39394 ft 489 kts 67°
2026-05-01 12:20 54.37974 -52.44110 39396 ft 489 kts 67°
2026-05-01 12:20 54.40816 -52.33486 39396 ft 489 kts 67°
2026-05-01 12:21 54.43624 -52.22944 39399 ft 487 kts 67°
2026-05-01 12:21 54.46440 -52.12317 39403 ft 489 kts 67°
2026-05-01 12:22 54.48779 -52.03456 39402 ft 488 kts 68°
2026-05-01 12:22 54.52058 -51.90973 39403 ft 489 kts 68°
2026-05-01 12:23 54.54835 -51.80347 39407 ft 489 kts 68°
2026-05-01 12:23 54.57621 -51.69637 39409 ft 489 kts 68°
2026-05-01 12:24 54.59927 -51.60733 39412 ft 488 kts 68°
2026-05-01 12:24 54.62689 -51.50022 39412 ft 489 kts 68°
2026-05-01 12:25 54.66818 -51.33912 39416 ft 490 kts 68°
2026-05-01 12:26 54.69573 -51.23096 39418 ft 491 kts 68°
2026-05-01 12:26 54.73670 -51.06919 39418 ft 491 kts 68°
2026-05-01 12:27 54.77763 -50.90636 39423 ft 491 kts 68°
2026-05-01 12:28 54.81837 -50.74313 39426 ft 491 kts 68°
2026-05-01 12:29 54.85866 -50.58044 39428 ft 491 kts 68°
2026-05-01 12:29 54.89890 -50.41680 39430 ft 491 kts 68°
2026-05-01 12:30 54.93894 -50.25271 39432 ft 491 kts 68°
2026-05-01 12:31 54.96550 -50.14320 39435 ft 491 kts 68°
2026-05-01 12:31 54.99200 -50.03336 39433 ft 491 kts 68°
2026-05-01 12:32 55.01167 -49.92007 39452 ft 489 kts 77°
2026-05-01 12:32 55.03607 -49.74795 39462 ft 490 kts 77°
2026-05-01 12:33 55.05243 -49.63228 39457 ft 490 kts 77°
2026-05-01 12:33 55.06863 -49.51663 39459 ft 490 kts 77°
2026-05-01 12:34 55.08465 -49.40171 39457 ft 489 kts 78°
2026-05-01 12:34 55.10059 -49.28620 39456 ft 488 kts 78°
2026-05-01 12:35 55.11643 -49.17081 39453 ft 488 kts 78°
2026-05-01 12:35 55.13215 -49.05517 39451 ft 487 kts 78°
2026-05-01 12:36 55.14773 -48.93985 39456 ft 488 kts 78°
2026-05-01 12:36 55.16312 -48.82493 39454 ft 489 kts 78°
2026-05-01 12:37 55.17852 -48.70907 39453 ft 489 kts 78°
2026-05-01 12:37 55.19381 -48.59309 39450 ft 489 kts 78°
2026-05-01 12:38 55.20900 -48.47697 39458 ft 489 kts 78°
2026-05-01 12:38 55.22408 -48.36077 39460 ft 489 kts 78°
2026-05-01 12:39 55.23904 -48.24455 39465 ft 488 kts 78°
2026-05-01 12:39 55.25381 -48.12885 39460 ft 489 kts 78°
2026-05-01 12:40 55.26858 -48.01223 39463 ft 490 kts 78°
2026-05-01 12:40 55.28325 -47.89542 39463 ft 490 kts 78°
2026-05-01 12:41 55.29772 -47.77919 39461 ft 490 kts 78°
2026-05-01 12:41 55.31217 -47.66220 39464 ft 490 kts 78°
2026-05-01 12:42 55.32653 -47.54496 39466 ft 490 kts 79°
2026-05-01 12:42 55.34076 -47.42775 39466 ft 490 kts 79°
2026-05-01 12:43 55.35477 -47.31131 39467 ft 489 kts 79°
2026-05-01 12:43 55.36876 -47.19405 39467 ft 490 kts 79°
2026-05-01 12:44 55.38265 -47.07666 39467 ft 490 kts 79°
2026-05-01 12:45 55.41009 -46.84154 39467 ft 490 kts 79°
2026-05-01 12:45 55.42363 -46.72394 39471 ft 490 kts 79°
2026-05-01 12:46 55.43696 -46.60718 39470 ft 489 kts 79°
2026-05-01 12:46 55.45026 -46.48960 39469 ft 489 kts 79°
2026-05-01 12:47 55.46343 -46.37207 39644 ft 482 kts 79°
2026-05-01 12:47 55.46978 -46.31503 40072 ft 476 kts 79°
2026-05-01 12:47 55.47616 -46.25742 39945 ft 481 kts 79°
2026-05-01 12:48 55.48257 -46.19918 39828 ft 486 kts 80°
2026-05-01 12:48 55.48904 -46.14033 39712 ft 490 kts 79°
2026-05-01 12:48 55.49549 -46.08129 39598 ft 491 kts 80°
2026-05-01 12:48 55.50192 -46.02218 39493 ft 491 kts 80°
2026-05-01 12:49 55.51466 -45.90414 39491 ft 489 kts 80°
2026-05-01 12:49 55.52732 -45.78574 39489 ft 491 kts 80°
2026-05-01 12:50 55.53981 -45.66786 39489 ft 492 kts 80°
2026-05-01 12:50 55.55228 -45.54891 39487 ft 491 kts 80°
2026-05-01 12:51 55.56463 -45.42996 39490 ft 491 kts 80°
2026-05-01 12:52 55.58293 -45.25157 39489 ft 492 kts 80°
2026-05-01 12:52 55.60094 -45.07323 39487 ft 492 kts 81°
2026-05-01 12:53 55.61875 -44.89416 39488 ft 493 kts 81°
2026-05-01 12:54 55.62992 -44.78036 39489 ft 494 kts 81°
2026-05-01 12:54 55.64728 -44.60126 39484 ft 494 kts 81°
2026-05-01 12:55 55.66445 -44.42130 39482 ft 494 kts 81°
2026-05-01 12:56 55.67575 -44.30118 39481 ft 494 kts 81°
2026-05-01 12:56 55.68695 -44.18089 39478 ft 495 kts 81°
2026-05-01 12:57 55.69797 -44.06116 39477 ft 495 kts 81°
2026-05-01 12:57 55.71439 -43.88011 39478 ft 496 kts 81°
2026-05-01 12:58 55.72523 -43.75898 39481 ft 496 kts 82°
2026-05-01 12:59 55.74120 -43.57784 39478 ft 497 kts 82°
2026-05-01 12:59 55.75699 -43.39558 39476 ft 498 kts 82°
2026-05-01 13:00 55.77255 -43.21270 39473 ft 499 kts 82°
2026-05-01 13:01 55.78784 -43.02962 39474 ft 499 kts 82°
2026-05-01 13:02 55.80282 -42.84686 39473 ft 501 kts 82°
2026-05-01 13:07 55.90506 -41.49277 39460 ft 503 kts 83°
2026-05-01 13:08 55.91366 -41.36868 39458 ft 504 kts 83°
2026-05-01 13:08 55.92209 -41.24521 39458 ft 504 kts 83°
2026-05-01 13:09 55.93045 -41.12083 39460 ft 505 kts 83°
2026-05-01 13:09 55.93869 -40.99640 39461 ft 505 kts 83°
2026-05-01 13:10 55.94682 -40.87172 39460 ft 506 kts 83°
2026-05-01 13:10 55.95347 -40.76806 39457 ft 506 kts 83°
2026-05-01 13:11 55.96265 -40.62273 39457 ft 506 kts 83°
2026-05-01 13:11 55.97042 -40.49765 39452 ft 507 kts 83°
2026-05-01 13:12 55.97678 -40.39358 39453 ft 507 kts 83°
2026-05-01 13:12 55.98431 -40.26843 39449 ft 507 kts 84°
2026-05-01 13:13 55.99172 -40.14306 39449 ft 508 kts 84°
2026-05-01 13:13 55.99901 -40.01749 39450 ft 509 kts 84°
2026-05-01 13:14 56.00414 -39.89131 39460 ft 509 kts 85°
2026-05-01 13:14 56.00947 -39.76570 39460 ft 510 kts 86°
2026-05-01 13:15 56.01401 -39.63913 39459 ft 510 kts 85°
2026-05-01 13:15 56.01889 -39.51247 39456 ft 510 kts 86°
2026-05-01 13:16 56.02334 -39.38585 39456 ft 511 kts 86°
2026-05-01 13:16 56.02786 -39.25893 39454 ft 511 kts 86°
2026-05-01 13:17 56.03631 -39.00587 39453 ft 511 kts 86°
2026-05-01 13:18 56.04234 -38.81516 39451 ft 512 kts 86°
2026-05-01 13:18 56.04622 -38.68769 39447 ft 512 kts 86°
2026-05-01 13:19 56.04993 -38.56109 39449 ft 513 kts 86°
2026-05-01 13:20 56.05530 -38.36966 39443 ft 513 kts 86°
2026-05-01 13:20 56.05872 -38.24205 39447 ft 513 kts 86°
2026-05-01 13:21 56.06357 -38.05138 39442 ft 514 kts 87°
2026-05-01 13:21 56.06666 -37.92354 39440 ft 514 kts 87°
2026-05-01 13:22 56.06962 -37.79547 39438 ft 515 kts 87°
2026-05-01 13:22 56.07246 -37.66724 39438 ft 514 kts 87°
2026-05-01 13:23 56.07514 -37.54006 39439 ft 515 kts 87°
2026-05-01 13:23 56.07770 -37.41200 39434 ft 515 kts 87°
2026-05-01 13:24 56.08013 -37.28375 39433 ft 515 kts 87°
2026-05-01 13:25 56.08354 -37.09109 39432 ft 516 kts 87°
2026-05-01 13:25 56.08565 -36.96248 39430 ft 517 kts 87°
2026-05-01 13:26 56.08763 -36.83364 39430 ft 517 kts 87°
2026-05-01 13:26 56.08946 -36.70566 39429 ft 517 kts 87°
2026-05-01 13:27 56.09116 -36.57697 39426 ft 517 kts 87°
2026-05-01 13:27 56.09348 -36.38368 39424 ft 517 kts 88°
2026-05-01 13:28 56.09548 -36.19075 39423 ft 517 kts 88°
2026-05-01 13:29 56.09769 -35.93390 39421 ft 517 kts 88°
2026-05-01 13:31 56.10000 -35.54715 39412 ft 517 kts 88°
2026-05-01 13:32 56.10100 -35.22597 39411 ft 516 kts 88°
2026-05-01 13:33 56.10118 -34.90544 39415 ft 517 kts 88°
2026-05-01 13:34 56.10071 -34.64764 39409 ft 517 kts 88°
2026-05-01 13:35 56.10001 -34.45488 39414 ft 517 kts 88°
2026-05-01 13:36 56.09901 -34.26138 39412 ft 517 kts 89°
2026-05-01 13:36 56.09771 -34.06909 39407 ft 515 kts 89°
2026-05-01 13:37 56.09668 -33.94052 39405 ft 516 kts 89°
2026-05-01 13:37 56.09551 -33.81183 39405 ft 517 kts 89°
2026-05-01 13:38 56.09350 -33.61845 39401 ft 518 kts 89°
2026-05-01 13:39 56.09199 -33.48970 39399 ft 516 kts 89°
2026-05-01 13:39 56.09036 -33.36110 39399 ft 516 kts 89°
2026-05-01 13:40 56.08860 -33.23323 39397 ft 516 kts 89°
2026-05-01 13:40 56.08670 -33.10500 39398 ft 515 kts 89°
2026-05-01 13:41 56.08466 -32.97642 39395 ft 515 kts 89°
2026-05-01 13:41 56.08250 -32.84823 39396 ft 515 kts 89°
2026-05-01 13:42 56.08020 -32.71980 39394 ft 516 kts 90°
2026-05-01 13:42 56.07778 -32.59223 39395 ft 516 kts 90°
2026-05-01 13:43 56.07521 -32.46344 39390 ft 517 kts 90°
2026-05-01 13:43 56.07249 -32.33456 39383 ft 517 kts 90°
2026-05-01 13:44 56.06966 -32.20609 39387 ft 516 kts 90°
2026-05-01 13:44 56.06671 -32.07853 39388 ft 516 kts 90°
2026-05-01 13:45 56.06361 -31.95022 39383 ft 516 kts 90°
2026-05-01 13:45 56.06038 -31.82203 39381 ft 515 kts 90°
2026-05-01 13:46 56.05701 -31.69386 39385 ft 516 kts 90°
2026-05-01 13:46 56.05352 -31.56563 39384 ft 516 kts 90°
2026-05-01 13:47 56.04989 -31.43745 39379 ft 516 kts 91°
2026-05-01 13:47 56.04613 -31.30970 39379 ft 516 kts 91°
2026-05-01 13:48 56.04224 -31.18144 39380 ft 516 kts 91°
2026-05-01 13:48 56.03821 -31.05342 39376 ft 515 kts 91°
2026-05-01 13:49 56.03408 -30.92644 39371 ft 514 kts 91°
2026-05-01 13:49 56.02980 -30.79863 39375 ft 514 kts 91°
2026-05-01 13:50 56.02538 -30.67077 39373 ft 514 kts 91°
2026-05-01 13:50 56.02087 -30.54400 39375 ft 514 kts 91°
2026-05-01 13:51 56.01620 -30.41649 39368 ft 513 kts 91°
2026-05-01 13:51 56.01140 -30.28914 39369 ft 512 kts 91°
2026-05-01 13:52 56.00649 -30.16224 39370 ft 511 kts 92°
2026-05-01 13:52 56.00147 -30.03597 39362 ft 513 kts 92°
2026-05-01 13:53 55.99443 -29.90867 39361 ft 514 kts 93°
2026-05-01 13:53 55.98350 -29.71800 39361 ft 514 kts 94°
2026-05-01 13:54 55.97581 -29.59100 39357 ft 514 kts 94°
2026-05-01 13:54 55.96814 -29.46507 39357 ft 513 kts 94°
2026-05-01 13:55 55.96018 -29.33830 39357 ft 513 kts 94°
2026-05-01 13:55 55.95219 -29.21166 39357 ft 513 kts 94°
2026-05-01 13:56 55.94400 -29.08518 39354 ft 513 kts 94°
2026-05-01 13:56 55.93575 -28.95896 39356 ft 512 kts 95°
2026-05-01 13:57 55.92876 -28.85398 39351 ft 512 kts 95°
2026-05-01 13:57 55.91887 -28.70742 39346 ft 512 kts 95°
2026-05-01 13:58 55.91021 -28.58144 39345 ft 512 kts 95°
2026-05-01 13:58 55.90144 -28.45559 39344 ft 511 kts 95°
2026-05-01 13:59 55.89253 -28.32978 39347 ft 512 kts 95°
2026-05-01 13:59 55.88348 -28.20374 39341 ft 512 kts 95°
2026-05-01 14:00 55.87431 -28.07796 39337 ft 513 kts 95°
2026-05-01 14:00 55.86499 -27.95200 39338 ft 513 kts 95°
2026-05-01 14:01 55.85562 -27.82700 39335 ft 512 kts 96°
2026-05-01 14:01 55.84604 -27.70103 39333 ft 513 kts 96°
2026-05-01 14:02 55.83799 -27.59655 39336 ft 513 kts 96°
2026-05-01 14:02 55.82820 -27.47104 39335 ft 512 kts 96°
2026-05-01 14:03 55.81827 -27.34538 39320 ft 513 kts 96°
2026-05-01 14:03 55.80820 -27.21965 39322 ft 513 kts 96°
2026-05-01 14:04 55.79800 -27.09401 39324 ft 513 kts 96°
2026-05-01 14:04 55.78776 -26.96946 39323 ft 512 kts 96°
2026-05-01 14:05 55.77732 -26.84413 39327 ft 512 kts 96°
2026-05-01 14:05 55.76675 -26.71885 39320 ft 513 kts 97°
2026-05-01 14:06 55.75605 -26.59354 39318 ft 513 kts 97°
2026-05-01 14:06 55.74523 -26.46841 39325 ft 511 kts 97°
2026-05-01 14:07 55.73430 -26.34356 39322 ft 512 kts 97°
2026-05-01 14:08 55.71772 -26.15698 39320 ft 512 kts 97°
2026-05-01 14:08 55.70645 -26.03202 39313 ft 513 kts 97°
2026-05-01 14:09 55.69504 -25.90704 39307 ft 512 kts 97°
2026-05-01 14:09 55.68353 -25.78232 39305 ft 512 kts 97°
2026-05-01 14:10 55.67199 -25.65876 39305 ft 511 kts 97°
2026-05-01 14:10 55.66025 -25.53446 39304 ft 511 kts 97°
2026-05-01 14:11 55.64837 -25.41014 39300 ft 511 kts 98°
2026-05-01 14:11 55.63041 -25.22473 39303 ft 511 kts 98°
2026-05-01 14:12 55.61822 -25.10058 39303 ft 511 kts 98°
2026-05-01 14:12 55.60593 -24.97672 39303 ft 511 kts 98°
2026-05-01 14:13 55.59359 -24.85373 39297 ft 511 kts 98°
2026-05-01 14:13 55.58101 -24.72972 39297 ft 511 kts 98°
2026-05-01 14:14 55.56833 -24.60591 39298 ft 511 kts 98°
2026-05-01 14:14 55.55559 -24.48290 39293 ft 511 kts 98°
2026-05-01 14:15 55.54266 -24.35934 39291 ft 510 kts 98°
2026-05-01 14:15 55.52963 -24.23603 39291 ft 510 kts 98°
2026-05-01 14:16 55.51650 -24.11308 39290 ft 509 kts 99°
2026-05-01 14:16 55.50325 -23.99013 39285 ft 510 kts 99°
2026-05-01 14:17 55.48992 -23.86775 39287 ft 511 kts 99°
2026-05-01 14:17 55.47638 -23.74463 39285 ft 511 kts 99°
2026-05-01 14:18 55.46271 -23.62155 39283 ft 511 kts 99°
2026-05-01 14:18 55.45127 -23.51947 39285 ft 511 kts 99°
2026-05-01 14:19 55.43504 -23.37600 39281 ft 511 kts 99°
2026-05-01 14:19 55.42101 -23.25327 39279 ft 511 kts 99°
2026-05-01 14:20 55.39973 -23.06926 39275 ft 511 kts 99°
2026-05-01 14:21 55.38545 -22.94722 39274 ft 510 kts 99°
2026-05-01 14:21 55.37110 -22.82571 39273 ft 509 kts 99°
2026-05-01 14:22 55.34925 -22.64279 39273 ft 509 kts 100°
2026-05-01 14:22 55.33460 -22.52146 39267 ft 510 kts 100°
2026-05-01 14:23 55.31972 -22.39943 39274 ft 511 kts 100°
2026-05-01 14:23 55.30470 -22.27728 39268 ft 510 kts 100°
2026-05-01 14:24 55.28959 -22.15550 39270 ft 510 kts 100°
2026-05-01 14:24 55.27449 -22.03483 39264 ft 509 kts 100°
2026-05-01 14:25 55.25919 -21.91355 39260 ft 508 kts 100°
2026-05-01 14:25 55.24380 -21.79269 39259 ft 507 kts 101°
2026-05-01 14:26 55.22052 -21.61182 39258 ft 507 kts 101°
2026-05-01 14:27 55.20497 -21.49219 39257 ft 506 kts 101°
2026-05-01 14:27 55.18922 -21.37206 39257 ft 505 kts 101°
2026-05-01 14:28 55.16542 -21.19244 39251 ft 504 kts 101°
2026-05-01 14:28 55.14953 -21.07365 39250 ft 504 kts 101°
2026-05-01 14:29 55.13341 -20.95412 39248 ft 504 kts 101°
2026-05-01 14:30 55.10088 -20.71588 39243 ft 504 kts 101°
2026-05-01 14:31 55.07625 -20.53797 39243 ft 504 kts 102°
2026-05-01 14:31 55.05965 -20.41925 39240 ft 503 kts 102°
2026-05-01 14:32 55.04295 -20.30068 39238 ft 503 kts 102°
2026-05-01 14:32 55.02615 -20.18232 39236 ft 503 kts 102°
2026-05-01 14:33 55.00935 -20.06496 39231 ft 502 kts 102°
2026-05-01 14:33 54.99070 -19.94785 39228 ft 502 kts 105°
2026-05-01 14:34 54.97045 -19.83128 39225 ft 501 kts 105°
2026-05-01 14:34 54.94978 -19.71529 39225 ft 500 kts 105°
2026-05-01 14:35 54.92935 -19.60036 39222 ft 499 kts 105°
2026-05-01 14:35 54.90864 -19.48500 39220 ft 498 kts 106°
2026-05-01 14:36 54.88791 -19.37014 39219 ft 498 kts 106°
2026-05-01 14:36 54.86711 -19.25556 39218 ft 497 kts 106°
2026-05-01 14:37 54.84631 -19.14179 39214 ft 497 kts 106°
2026-05-01 14:37 54.82529 -19.02745 39218 ft 497 kts 106°
2026-05-01 14:38 54.80417 -18.91328 39215 ft 496 kts 106°
2026-05-01 14:38 54.78297 -18.79936 39212 ft 496 kts 106°
2026-05-01 14:39 54.76177 -18.68618 39209 ft 496 kts 107°
2026-05-01 14:39 54.74036 -18.57254 39214 ft 496 kts 107°
2026-05-01 14:40 54.71882 -18.45888 39209 ft 496 kts 107°
2026-05-01 14:40 54.69719 -18.34544 39209 ft 496 kts 107°
2026-05-01 14:41 54.67549 -18.23229 39213 ft 496 kts 107°
2026-05-01 14:41 54.65380 -18.11987 39214 ft 496 kts 107°
2026-05-01 14:42 54.63189 -18.00695 39210 ft 495 kts 107°
2026-05-01 14:42 54.60990 -17.89434 39206 ft 496 kts 107°
2026-05-01 14:43 54.58779 -17.78171 39206 ft 496 kts 107°
2026-05-01 14:43 54.56555 -17.66911 39204 ft 497 kts 107°
2026-05-01 14:44 54.54323 -17.55676 39203 ft 497 kts 107°
2026-05-01 14:44 54.50943 -17.38782 39196 ft 496 kts 107°
2026-05-01 14:45 54.47553 -17.21979 39196 ft 495 kts 108°
2026-05-01 14:46 54.45295 -17.10871 39191 ft 494 kts 108°
2026-05-01 14:46 54.41879 -16.94180 39191 ft 492 kts 108°
2026-05-01 14:47 54.39600 -16.83121 39188 ft 491 kts 108°
2026-05-01 14:48 54.36166 -16.66573 39188 ft 490 kts 108°
2026-05-01 14:48 54.32732 -16.50160 39183 ft 489 kts 108°
2026-05-01 14:49 54.28495 -16.30087 39177 ft 488 kts 108°
2026-05-01 14:50 54.23837 -16.08253 39167 ft 488 kts 108°
2026-05-01 14:51 54.20307 -15.91858 39165 ft 491 kts 109°
2026-05-01 14:52 54.16749 -15.75470 39158 ft 490 kts 109°
2026-05-01 14:53 54.13175 -15.59132 39154 ft 489 kts 109°
2026-05-01 14:53 54.10797 -15.48334 39155 ft 489 kts 109°
2026-05-01 14:54 54.08392 -15.37467 39152 ft 491 kts 109°
2026-05-01 14:54 54.05969 -15.26583 39149 ft 491 kts 110°
2026-05-01 14:55 54.03537 -15.15709 39146 ft 489 kts 110°
2026-05-01 14:55 54.01127 -15.04979 39140 ft 489 kts 109°
2026-05-01 14:55 54.00244 -14.99426 39159 ft 486 kts 97°
2026-05-01 14:56 54.00022 -14.93694 39150 ft 486 kts 89°
2026-05-01 14:56 54.00062 -14.82147 39133 ft 488 kts 89°
2026-05-01 14:57 54.00088 -14.70591 39122 ft 488 kts 89°
2026-05-01 14:57 54.00107 -14.53300 39119 ft 489 kts 90°
2026-05-01 14:58 54.00101 -14.41792 39109 ft 489 kts 90°
2026-05-01 14:58 54.00089 -14.30214 39106 ft 489 kts 90°
2026-05-01 14:59 54.00064 -14.18659 39104 ft 489 kts 90°
2026-05-01 14:59 54.00029 -14.07092 39096 ft 488 kts 91°
2026-05-01 15:00 53.99147 -13.95742 39120 ft 487 kts 109°
2026-05-01 15:00 53.98070 -13.90359 39093 ft 488 kts 109°
2026-05-01 15:01 53.95839 -13.79454 39082 ft 488 kts 109°
2026-05-01 15:01 53.93631 -13.68560 39079 ft 487 kts 110°
2026-05-01 15:02 53.91401 -13.57711 39069 ft 486 kts 110°
2026-05-01 15:02 53.89192 -13.46974 39068 ft 484 kts 110°
2026-05-01 15:03 53.86963 -13.36220 39056 ft 484 kts 110°
2026-05-01 15:03 53.84728 -13.25486 39049 ft 483 kts 110°
2026-05-01 15:04 53.82476 -13.14732 39048 ft 485 kts 110°
2026-05-01 15:04 53.80211 -13.03972 39045 ft 485 kts 111°
2026-05-01 15:05 53.77930 -12.93191 39047 ft 485 kts 111°
2026-05-01 15:05 53.75658 -12.82515 39045 ft 486 kts 111°
2026-05-01 15:06 53.73357 -12.71756 39042 ft 486 kts 111°
2026-05-01 15:06 53.71051 -12.61030 39045 ft 485 kts 111°
2026-05-01 15:07 53.68753 -12.50397 39046 ft 485 kts 111°
2026-05-01 15:07 53.66432 -12.39710 39047 ft 484 kts 111°
2026-05-01 15:08 53.64105 -12.29060 39046 ft 484 kts 111°
2026-05-01 15:08 53.61771 -12.18422 39048 ft 483 kts 112°
2026-05-01 15:09 53.59429 -12.07810 39048 ft 483 kts 112°
2026-05-01 15:09 53.57077 -11.97204 39047 ft 484 kts 112°
2026-05-01 15:10 53.54725 -11.86654 39053 ft 484 kts 112°
2026-05-01 15:10 53.51160 -11.70757 39051 ft 484 kts 112°
2026-05-01 15:11 53.47568 -11.54866 39054 ft 485 kts 112°
2026-05-01 15:12 53.45176 -11.44351 39059 ft 485 kts 112°
2026-05-01 15:12 53.41544 -11.28479 39062 ft 484 kts 112°
2026-05-01 15:14 53.35481 -11.02250 39057 ft 484 kts 113°
2026-05-01 15:14 53.31798 -10.86476 39058 ft 485 kts 113°
2026-05-01 15:15 53.26853 -10.65472 39057 ft 485 kts 114°
2026-05-01 15:16 53.21909 -10.44676 39070 ft 481 kts 114°
2026-05-01 15:18 53.15708 -10.18871 39067 ft 480 kts 114°
2026-05-01 15:19 53.10699 -9.98250 39066 ft 479 kts 114°
2026-05-01 15:19 53.06927 -9.82850 39070 ft 480 kts 115°
2026-05-01 15:20 53.03143 -9.67502 39075 ft 479 kts 115°
2026-05-01 15:21 53.00602 -9.57263 39068 ft 480 kts 115°
2026-05-01 15:21 52.98047 -9.47006 39063 ft 479 kts 115°
2026-05-01 15:22 52.94211 -9.31702 39062 ft 478 kts 115°
2026-05-01 15:22 52.91663 -9.21596 39058 ft 477 kts 115°
2026-05-01 15:23 52.89091 -9.11437 39063 ft 477 kts 115°
2026-05-01 15:23 52.86517 -9.01321 39063 ft 476 kts 116°
2026-05-01 15:24 52.83940 -8.91238 39063 ft 476 kts 116°
2026-05-01 15:24 52.81354 -8.81160 39066 ft 475 kts 116°
2026-05-01 15:25 52.78760 -8.71101 39069 ft 475 kts 116°
2026-05-01 15:25 52.76174 -8.61116 39068 ft 475 kts 116°
2026-05-01 15:26 52.73568 -8.51098 39068 ft 474 kts 116°
2026-05-01 15:26 52.70954 -8.41094 39071 ft 475 kts 116°
2026-05-01 15:27 52.68328 -8.31088 39075 ft 476 kts 116°
2026-05-01 15:28 52.64361 -8.16059 39079 ft 476 kts 116°
2026-05-01 15:28 52.61726 -8.06126 39086 ft 476 kts 116°
2026-05-01 15:29 52.57739 -7.91185 39088 ft 475 kts 117°
2026-05-01 15:30 52.52849 -7.72986 39100 ft 476 kts 117°
2026-05-01 15:31 52.44317 -7.41579 39116 ft 476 kts 117°
2026-05-01 15:32 52.38901 -7.21865 39139 ft 476 kts 118°
2026-05-01 15:34 52.30684 -6.92266 39146 ft 475 kts 118°